2023/09/19 00:00:00,19.3,21.5
2023/09/19 00:10:00,19.2,21.5
2023/09/19 00:20:00,19.3,21.4
2023/09/19 00:30:00,19.3,21.6
2023/09/19 00:40:00,19.5,21.5
2023/09/19 00:50:00,22.9,21.4
2023/09/19 01:00:00,26.9,21.3
2023/09/19 01:10:00,31.0,21.3
2023/09/19 01:20:00,32.1,21.3
2023/09/19 01:30:00,32.3,21.2
2023/09/19 01:40:00,32.8,21.2
2023/09/19 01:50:00,33.2,21.2
2023/09/19 02:00:00,33.4,21.2
2023/09/19 02:10:00,33.4,21.0
2023/09/19 02:20:00,33.5,21.1
2023/09/19 02:30:00,33.0,21.1
2023/09/19 02:40:00,32.8,21.0
2023/09/19 02:50:00,32.5,21.0
2023/09/19 03:00:00,32.1,20.9
2023/09/19 03:10:00,31.6,21.0
2023/09/19 03:20:00,31.4,20.8
2023/09/19 03:30:00,31.2,21.0
2023/09/19 03:40:00,31.3,21.0
2023/09/19 03:50:00,31.6,21.0
2023/09/19 04:00:00,31.7,21.0
2023/09/19 04:10:00,32.1,21.0
2023/09/19 04:20:00,32.4,21.2
2023/09/19 04:30:00,31.1,21.3
2023/09/19 04:40:00, 5.5,21.0
2023/09/19 04:50:00, 0.0,21.1
2023/09/19 05:00:00, 0.0,21.0
2023/09/19 05:10:00, 0.0,21.0
2023/09/19 05:20:00, 0.0,20.9
2023/09/19 05:30:00, 0.0,20.8
2023/09/19 05:40:00, 0.0,20.9
2023/09/19 05:50:00, 9.8,20.8
2023/09/19 06:00:00,31.2,20.9
2023/09/19 06:10:00,30.3,20.8
2023/09/19 06:20:00,30.1,20.9
2023/09/19 06:30:00,29.8,21.1
2023/09/19 06:40:00,30.1,21.4
2023/09/19 06:50:00,30.2,21.4
2023/09/19 07:00:00,30.7,21.7
2023/09/19 07:10:00,30.9,21.9
2023/09/19 07:20:00,31.1,22.2
2023/09/19 07:30:00,29.1,22.3
2023/09/19 07:40:00,11.7,22.3
2023/09/19 07:50:00,---,22.3
2023/09/19 08:00:00, 0.0,22.4
2023/09/19 08:10:00, 0.0,22.7
2023/09/19 08:20:00, 0.0,23.0
2023/09/19 08:30:00, 0.0,23.8
2023/09/19 08:40:00, 0.0,24.6
2023/09/19 08:50:00,---,25.2
2023/09/19 09:00:00,34.0,26.0
2023/09/19 09:10:00,34.9,26.4
2023/09/19 09:20:00,35.2,26.9
2023/09/19 09:30:00,35.8,27.0
2023/09/19 09:40:00,36.2,27.3
2023/09/19 09:50:00,36.3,28.2
2023/09/19 10:00:00,31.8,28.6
2023/09/19 10:10:00,28.5,29.3
2023/09/19 10:20:00,---,30.1
2023/09/19 10:30:00,---,29.5
2023/09/19 10:40:00,37.3,30.6
2023/09/19 10:50:00,36.7,29.1
2023/09/19 11:00:00,22.0,30.1
2023/09/19 11:10:00,22.3,31.3
2023/09/19 11:20:00,26.4,32.4
2023/09/19 11:30:00,27.8,32.6
2023/09/19 11:40:00,21.5,32.8
2023/09/19 11:50:00,22.2,33.1
2023/09/19 12:00:00,36.1,32.4
2023/09/19 12:10:00,35.2,31.8
2023/09/19 12:20:00,35.7,31.0
2023/09/19 12:30:00,35.6,31.8
2023/09/19 12:40:00,35.9,31.6
2023/09/19 12:50:00,36.2,29.9
2023/09/19 13:00:00,36.0,31.3
2023/09/19 13:10:00,35.4,32.2
2023/09/19 13:20:00,35.5,33.2
2023/09/19 13:30:00,35.4,32.0
2023/09/19 13:40:00,36.7,30.6
2023/09/19 13:50:00,19.3,28.6
2023/09/19 14:00:00,13.9,27.7
2023/09/19 14:10:00,16.3,26.6
2023/09/19 14:20:00,15.2,25.6
2023/09/19 14:30:00, 0.0,25.3
2023/09/19 14:40:00, 0.0,25.9
2023/09/19 14:50:00, 0.0,26.3
2023/09/19 15:00:00, 0.0,27.0
2023/09/19 15:10:00, 0.0,27.0
2023/09/19 15:20:00, 0.0,28.4
2023/09/19 15:30:00, 0.0,28.0
2023/09/19 15:40:00,15.1,25.7
2023/09/19 15:50:00,21.7,25.4
2023/09/19 16:00:00,21.6,27.0
2023/09/19 16:10:00,21.4,26.2
2023/09/19 16:20:00,21.5,25.8
2023/09/19 16:30:00,21.6,25.6
2023/09/19 16:40:00,21.7,25.4
2023/09/19 16:50:00,21.2,25.1
2023/09/19 17:00:00,21.7,24.9
2023/09/19 17:10:00,21.8,24.8
2023/09/19 17:20:00,21.7,24.2
2023/09/19 17:30:00,21.7,24.3
2023/09/19 17:40:00,21.5,24.2
2023/09/19 17:50:00,21.6,24.0
2023/09/19 18:00:00,21.5,23.8
2023/09/19 18:10:00,21.4,23.8
2023/09/19 18:20:00,21.4,23.6
2023/09/19 18:30:00,21.4,23.6
2023/09/19 18:40:00,21.3,23.6
2023/09/19 18:50:00,20.8,23.4
2023/09/19 19:00:00,20.4,23.5
2023/09/19 19:10:00,18.9,23.5
2023/09/19 19:20:00,18.8,23.3
2023/09/19 19:30:00,19.0,23.3
2023/09/19 19:40:00,16.2,23.2
2023/09/19 19:50:00,16.2,23.2
2023/09/19 20:00:00,17.4,23.1
2023/09/19 20:10:00,17.8,23.2
2023/09/19 20:20:00,18.0,23.1
2023/09/19 20:30:00,18.0,23.1
2023/09/19 20:40:00,18.0,23.1
2023/09/19 20:50:00,18.0,23.0
2023/09/19 21:00:00,18.1,23.0
2023/09/19 21:10:00,18.0,23.0
2023/09/19 21:20:00,18.1,23.1
2023/09/19 21:30:00,18.1,22.9
2023/09/19 21:40:00,18.1,23.1
2023/09/19 21:50:00,18.1,22.8
2023/09/19 22:00:00,18.1,22.9
2023/09/19 22:10:00,18.1,22.9
2023/09/19 22:20:00,18.1,22.7
2023/09/19 22:30:00,18.2,22.7
2023/09/19 22:40:00,18.2,22.5
2023/09/19 22:50:00,18.2,22.6
2023/09/19 23:00:00,18.3,22.5
2023/09/19 23:10:00,18.2,22.5
2023/09/19 23:20:00,18.1,22.1
2023/09/19 23:30:00,18.1,22.1
2023/09/19 23:40:00,18.2,22.1
2023/09/19 23:50:00,18.1,21.8
